Temp
15 15 15 15 14 14 14 14 14 14 14 14 14 14 14 14 14 13 13 14 13 13 14 14 14 14 14 14 13 13 14 14 14 13 13 13 14 15 14 13 12 11 10
15 15 15 14 15 15 15 14 14 14 14 14 13 13 14 14 14 13 13 13 13 13 13 13 13 13 13 13 13 13 13 13 13 13 13 13 13 13 14 14 13 13 11
15 15 15 14 14 14 15 14 14 13 13 14 14 14 13 13 14 14 13 14 14 14 13 13 13 12 12 12 12 12 12 12 13 12 13 13 13 13 13 13 13 12 11
15 15 14 14 15 14 13 13 14 14 15 14 14 14 14 14 14 13 14 14 14 14 14 14 12 11 11 11 11 12 12 12 12 12 12 12 13 13 12 12 13 12 10
14 14 13 13 13 13 13 13 13 13 13 13 13 13 13 13 13 13 13 13 13 13 12 12 12 11 11 10 10 10 11 11 11 11 12 12 12 12 12 12 12 12 11
14 13 13 14 14 13 13 12 12 11 11 12 12 11 12 12 12 12 12 12 12 11 11 11 11 11 10 10 10 10 10 10 10 10 11 12 12 12 11 11 12 11 12
14 14 13 14 13 12 11 11 10 11 11 11 10 11 11 12 13 12 12 11 11 11 10 10 9 9 9 9 9 9 8 8 8 8 9 9 11 11 12 12 11 11 12
15 15 14 12 12 11 10 9 10 10 11 10 10 9 11 11 12 11 10 10 10 9 9 9 9 8 8 8 8 8 8 8 7 7 7 8 8 8 8 10 10 11 11
14 14 13 12 12 11 10 10 9 9 9 9 9 9 9 10 8 9 9 9 9 8 8 8 8 8 7 7 7 7 6 6 6 7 7 7 6 7 8 8 9 10 8
13 12 12 12 11 10 9 9 9 8 8 8 8 8 8 8 8 8 8 9 8 8 8 8 7 7 7 7 7 6 6 5 5 5 5 5 5 6 7 8 8 9 9
11 11 12 11 9 9 8 8 7 7 7 7 7 7 7 7 7 7 7 8 8 7 7 7 7 7 7 7 6 6 6 5 5 4 5 5 5 5 5 7 7 7 8
10 10 10 9 8 8 7 7 7 6 6 6 6 6 6 7 7 7 6 6 6 7 7 7 7 7 7 7 5 5 5 4 4 3 4 4 4 5 5 5 7 7 7
10 9 8 8 8 7 7 7 7 6 5 5 5 5 5 6 6 6 6 6 6 6 6 6 6 6 6 6 5 4 4 4 4 3 3 3 4 4 4 5 6 6 6
9 9 8 8 7 7 7 7 6 5 5 5 4 4 4 5 5 5 5 5 5 5 5 6 6 6 6 6 5 4 4 4 4 3 3 3 3 3 4 4 5 5 5
8 10 9 8 7 7 7 6 4 4 4 4 4 4 4 4 4 4 4 4 5 5 4 4 5 5 5 5 5 3 3 3 3 3 3 3 2 3 3 3 3 5 4
9 9 8 8 7 7 6 4 3 4 3 3 3 3 3 3 3 3 4 4 4 3 3 4 4 4 4 4 4 4 3 3 3 3 3 2 2 2 2 3 3 3 4
9 8 7 8 7 7 5 3 3 3 3 2 2 2 2 2 3 3 3 3 2 1 2 3 3 3 3 3 3 3 2 2 3 3 2 1 1 2 2 2 3 2 3
9 8 8 7 6 6 3 2 3 2 2 2 2 2 2 2 2 2 2 2 1 0 1 1 1 1 1 1 1 1 1 2 2 3 2 1 1 1 1 0 2 2 3
8 7 7 6 5 3 2 2 2 1 1 1 1 1 1 1 1 1 1 0 -1 -1 -1 -2 -1 -2 -2 -2 -2 -1 0 1 1 2 1 0 -0 -0 1 -0 1 2 3
7 7 6 5 4 2 1 2 1 2 2 1 1 0 0 -0 -0 1 0 -2 -3 -3 -3 -3 -3 -3 -3 -3 -3 -3 -2 -1 0 1 0 -0 -1 -1 -1 -0 1 1 2
7 6 4 3 2 1 1 3 3 3 3 3 3 3 2 2 1 0 -2 -2 -4 -4 -4 -5 -4 -4 -4 -4 -4 -3 -3 -2 -1 -1 -1 -1 -1 -1 -0 -1 -1 1 2
6 5 3 2 0 1 2 3 3 3 2 3 3 2 2 1 -2 -2 -1 -3 -5 -5 -5 -5 -5 -5 -5 -5 -4 -4 -3 -3 -3 -2 -2 -2 -2 -0 -1 -1 0 1 1
5 4 2 0 0 -0 2 2 2 2 3 3 2 1 -0 -3 -2 -2 -4 -5 -6 -6 -6 -6 -6 -5 -5 -4 -4 -4 -4 -4 -3 -3 -3 -3 -2 -1 -1 -0 0 2 2
2 1 0 2 2 2 2 2 2 2 2 1 -0 -2 -3 -2 -2 -4 -5 -6 -6 -5 -5 -5 -5 -4 -5 -4 -4 -4 -4 -4 -4 -3 -3 -3 -3 -1 -1 -1 -0 1 2
2 3 2 2 2 1 2 2 2 2 1 0 -0 -2 -2 -2 -2 -4 -6 -7 -6 -3 -4 -4 -3 -3 -3 -4 -4 -4 -3 -4 -3 -3 -3 -3 -3 -2 -2 -1 -1 2 3
2 2 1 1 2 0 2 2 1 1 1 0 -0 -1 -1 -2 -4 -5 -7 -6 -6 -4 -4 -3 -3 -3 -3 -4 -4 -4 -4 -4 -4 -4 -3 -4 -4 -3 -3 -3 -2 -0 2
Height
1549 1550 1551 1552 1551 1552 1552 1552 1552 1551 1551 1550 1550 1549 1548 1547 1546 1545 1542 1541 1538 1536 1535 1534 1533 1531 1531 1531 1530 1529 1528 1527 1526 1525 1525 1525 1523 1522 1523 1522 1522 1522 1522
1546 1547 1548 1548 1549 1550 1550 1550 1550 1550 1549 1547 1547 1546 1545 1544 1543 1541 1540 1538 1536 1534 1532 1531 1530 1528 1527 1526 1524 1523 1523 1523 1522 1520 1520 1521 1519 1517 1516 1517 1516 1516 1516
1543 1544 1545 1545 1546 1546 1547 1547 1547 1547 1547 1547 1546 1545 1543 1541 1541 1539 1537 1535 1534 1531 1528 1526 1525 1524 1522 1521 1519 1518 1517 1516 1515 1515 1513 1511 1512 1512 1511 1510 1510 1511 1512
1541 1541 1543 1544 1544 1545 1547 1548 1547 1547 1547 1545 1544 1543 1541 1539 1537 1535 1534 1532 1531 1529 1527 1524 1520 1518 1517 1515 1514 1512 1511 1510 1509 1506 1507 1506 1503 1503 1504 1505 1504 1504 1505
1539 1540 1543 1542 1544 1545 1546 1545 1545 1545 1544 1542 1541 1539 1536 1535 1533 1532 1530 1528 1527 1525 1522 1520 1517 1515 1513 1511 1509 1507 1505 1503 1501 1500 1498 1497 1497 1495 1495 1497 1498 1498 1499
1537 1539 1540 1540 1542 1544 1543 1541 1540 1541 1540 1538 1536 1533 1532 1530 1528 1527 1526 1525 1523 1521 1520 1517 1513 1512 1510 1508 1505 1502 1500 1497 1494 1492 1490 1488 1486 1486 1487 1488 1489 1490 1490
1535 1536 1538 1538 1539 1539 1537 1537 1537 1538 1537 1535 1532 1530 1527 1526 1526 1525 1523 1521 1520 1517 1515 1514 1511 1508 1505 1503 1502 1500 1496 1492 1489 1487 1484 1479 1479 1470 1472 1474 1476 1478 1479
1532 1533 1534 1535 1536 1537 1536 1535 1534 1534 1534 1532 1530 1527 1525 1523 1522 1520 1519 1518 1517 1514 1512 1510 1508 1505 1502 1499 1496 1493 1490 1486 1482 1478 1476 1472 1469 1467 1465 1462 1461 1462 1466
1530 1531 1531 1531 1532 1534 1535 1533 1532 1531 1530 1529 1528 1528 1523 1522 1518 1518 1516 1515 1512 1510 1508 1506 1503 1500 1497 1494 1491 1488 1484 1480 1477 1474 1470 1466 1462 1460 1457 1459 1453 1452 1456
1527 1528 1529 1529 1530 1532 1531 1531 1530 1528 1528 1527 1525 1524 1523 1522 1518 1513 1514 1512 1510 1507 1504 1501 1499 1496 1493 1489 1487 1484 1478 1475 1472 1469 1465 1460 1456 1454 1453 1450 1448 1444 1445
1523 1525 1526 1527 1528 1530 1528 1527 1526 1525 1524 1523 1522 1521 1520 1518 1516 1514 1508 1507 1506 1504 1500 1497 1494 1491 1489 1485 1481 1478 1474 1469 1468 1463 1459 1455 1451 1448 1445 1445 1440 1435 1425
1520 1522 1524 1525 1526 1525 1525 1524 1522 1521 1521 1520 1519 1519 1517 1515 1513 1512 1507 1503 1500 1496 1494 1492 1489 1487 1483 1480 1475 1472 1469 1466 1462 1456 1453 1448 1444 1440 1438 1437 1432 1431 1429
1517 1518 1520 1521 1523 1522 1520 1519 1518 1518 1518 1517 1516 1515 1513 1512 1511 1508 1504 1498 1494 1491 1488 1486 1484 1482 1479 1474 1470 1467 1463 1461 1457 1451 1447 1443 1438 1433 1429 1429 1426 1423 1420
1515 1515 1517 1518 1518 1517 1516 1515 1515 1515 1515 1514 1512 1511 1510 1508 1507 1505 1501 1497 1490 1486 1481 1480 1478 1475 1471 1469 1463 1461 1457 1455 1451 1447 1442 1437 1433 1428 1423 1420 1419 1416 1416
1510 1511 1512 1514 1514 1514 1513 1512 1512 1513 1512 1511 1509 1507 1505 1504 1502 1500 1497 1495 1492 1485 1473 1469 1470 1467 1466 1462 1460 1455 1451 1448 1445 1440 1435 1430 1426 1422 1417 1413 1409 1409 1408
1505 1507 1509 1509 1510 1509 1509 1509 1510 1510 1508 1506 1505 1503 1502 1500 1498 1496 1494 1492 1489 1482 1475 1468 1465 1463 1458 1455 1453 1448 1446 1441 1438 1434 1429 1424 1420 1416 1410 1406 1402 1399 1400
1502 1504 1505 1505 1505 1505 1506 1506 1506 1505 1503 1502 1502 1501 1499 1498 1494 1491 1489 1487 1483 1481 1475 1459 1462 1456 1452 1448 1445 1441 1438 1435 1430 1428 1423 1418 1414 1410 1405 1400 1397 1394 1395
1498 1500 1501 1501 1501 1501 1502 1502 1501 1501 1500 1499 1499 1497 1496 1493 1490 1487 1485 1481 1474 1472 1470 1459 1449 1448 1445 1442 1437 1433 1429 1426 1423 1420 1415 1411 1408 1403 1398 1394 1392 1390 1388
1494 1496 1496 1496 1497 1498 1499 1499 1498 1497 1497 1496 1495 1493 1491 1488 1485 1483 1479 1474 1472 1466 1462 1455 1443 1441 1436 1433 1428 1424 1420 1417 1415 1413 1408 1404 1401 1396 1392 1389 1386 1384 1380
1490 1491 1492 1493 1494 1496 1496 1495 1495 1494 1493 1492 1489 1487 1485 1483 1480 1474 1471 1468 1463 1458 1452 1447 1440 1433 1430 1426 1423 1418 1411 1409 1406 1405 1401 1398 1394 1390 1387 1382 1380 1379 1376
1485 1487 1488 1490 1491 1492 1493 1492 1491 1490 1488 1486 1484 1482 1479 1476 1473 1470 1466 1460 1456 1452 1446 1440 1434 1428 1423 1419 1417 1412 1407 1402 1397 1397 1393 1391 1388 1385 1381 1377 1373 1370 1369
1481 1483 1485 1487 1489 1490 1488 1488 1487 1486 1483 1480 1478 1477 1474 1471 1468 1464 1460 1456 1453 1447 1439 1435 1429 1423 1416 1414 1410 1406 1402 1397 1392 1391 1387 1384 1382 1375 1374 1370 1366 1363 1363
1476 1479 1481 1484 1486 1484 1483 1484 1482 1481 1478 1476 1473 1470 1468 1467 1463 1458 1453 1448 1444 1440 1435 1430 1423 1420 1412 1410 1405 1399 1396 1392 1389 1387 1383 1377 1376 1370 1366 1361 1359 1355 1354
1474 1477 1478 1478 1479 1480 1480 1479 1478 1477 1475 1473 1469 1467 1464 1459 1456 1451 1445 1439 1434 1430 1427 1425 1420 1413 1409 1404 1400 1395 1390 1386 1383 1381 1381 1375 1371 1366 1362 1357 1354 1351 1350
1470 1472 1472 1474 1475 1475 1476 1475 1474 1473 1471 1470 1466 1463 1461 1455 1452 1447 1439 1433 1427 1423 1422 1419 1414 1409 1403 1399 1395 1390 1386 1382 1378 1376 1375 1372 1368 1363 1359 1354 1349 1345 1346
1465 1467 1469 1470 1471 1472 1473 1472 1471 1469 1467 1465 1461 1458 1455 1451 1447 1442 1436 1429 1422 1419 1415 1412 1408 1403 1398 1393 1389 1386 1382 1378 1376 1373 1371 1370 1367 1365 1360 1354 1349 1345 1346
Wind_Speed
10 9 10 6 5 5 6 8 9 10 9 9 9 14 16 16 17 18 18 20 26 26 24 23 23 24 24 24 25 26 25 25 25 26 26 25 25 25 24 26 27 26 25
13 11 12 10 11 10 9 8 8 9 9 14 13 15 15 16 16 17 18 19 23 26 29 27 25 24 25 26 27 28 28 28 27 27 28 29 28 27 26 27 29 30 30
11 9 8 8 10 10 10 9 8 8 10 10 12 14 14 16 16 16 19 19 19 25 27 25 29 31 28 27 28 30 32 32 33 32 31 31 32 32 30 29 31 33 34
12 10 8 6 5 4 2 3 5 6 8 9 11 12 14 15 16 17 18 18 18 18 21 24 21 24 28 30 30 32 33 36 39 38 37 36 35 36 35 34 32 34 38
9 5 4 4 2 1 2 3 5 7 8 10 11 14 16 16 17 17 18 17 16 16 17 21 28 27 29 31 31 32 34 36 37 39 44 43 41 39 39 38 36 35 38
10 7 5 4 2 1 2 5 5 6 7 10 13 15 14 17 16 13 14 15 14 17 16 18 22 22 23 24 27 32 33 33 32 36 38 43 52 47 43 42 41 38 37
10 8 4 3 3 3 4 3 4 6 7 8 13 15 16 12 9 15 11 15 20 15 17 17 20 22 22 24 26 27 29 30 34 35 36 36 38 44 53 51 49 44 41
11 11 9 6 6 2 1 3 6 6 6 9 11 15 11 13 7 15 20 13 20 14 16 21 22 22 26 24 27 28 30 32 33 33 34 36 38 41 38 51 57 50 46
12 10 8 7 2 2 2 3 6 7 8 8 8 9 11 8 20 15 17 16 18 20 19 22 24 24 26 27 28 27 31 34 35 40 43 44 43 43 40 37 47 63 49
11 8 6 3 2 1 1 3 6 8 6 9 10 9 10 14 18 23 16 19 20 21 23 23 24 24 25 26 26 26 28 28 34 38 40 42 43 42 40 38 30 52 52
10 7 4 2 1 1 5 7 6 7 8 9 10 12 13 14 16 21 27 25 23 23 24 25 25 26 25 27 19 23 34 39 40 40 38 36 39 39 39 41 39 30 63
10 8 5 4 4 5 5 7 10 10 10 12 11 12 14 16 19 22 26 27 29 28 27 28 27 27 25 27 24 28 31 33 36 35 35 34 36 37 37 34 46 34 36
11 9 6 5 4 6 9 11 13 12 12 12 14 15 15 18 20 23 25 28 29 31 32 31 26 25 26 25 26 26 27 31 30 38 41 39 39 35 33 35 37 39 26
11 13 7 6 7 10 12 14 14 11 12 13 14 15 16 18 19 20 22 26 30 31 36 31 29 26 27 28 30 34 25 24 31 38 41 40 36 37 30 29 30 23 31
12 8 7 7 8 10 12 13 11 12 13 13 14 15 16 17 19 19 21 22 26 30 38 38 31 29 28 28 28 28 27 30 33 37 35 37 39 38 30 30 27 35 28
10 7 6 7 10 12 13 11 11 11 13 14 13 14 16 16 17 18 20 21 23 24 31 39 35 33 31 30 30 33 32 31 32 32 32 33 37 38 35 28 26 29 34
7 7 7 10 11 12 11 10 10 11 11 12 12 14 15 16 17 18 20 22 26 22 30 45 35 36 34 34 36 36 36 34 32 29 34 33 36 34 33 28 24 22 23
7 8 10 10 10 10 9 9 9 9 10 11 12 14 15 16 18 19 21 23 27 26 28 36 44 38 35 33 34 35 34 30 30 29 33 34 31 33 32 24 23 23 22
7 8 9 8 8 7 7 8 9 10 10 11 13 14 16 18 20 21 23 29 29 31 31 31 43 41 39 33 35 36 37 34 30 28 28 29 29 30 28 26 21 23 23
8 8 7 7 7 5 6 7 7 11 13 14 17 18 19 19 21 29 32 30 29 31 34 36 40 40 39 35 34 35 35 31 31 28 28 26 24 24 25 29 23 19 21
6 6 6 5 5 5 7 11 13 15 18 21 22 24 24 26 28 29 28 32 34 33 35 38 42 40 40 35 37 37 36 35 36 32 31 29 24 29 35 24 23 20 17
6 5 5 6 4 5 14 15 16 18 21 23 25 25 26 27 23 26 30 30 30 35 39 36 39 38 39 37 38 35 38 37 35 30 24 30 33 37 31 27 25 20 21
5 6 7 5 5 10 14 15 17 18 20 21 22 24 26 24 29 31 32 35 37 32 33 33 35 35 37 35 36 39 37 35 31 28 29 37 36 34 29 29 25 21 20
7 7 9 9 8 10 11 12 13 16 18 22 24 24 25 29 31 31 35 37 36 34 28 25 28 32 31 32 32 32 31 32 31 28 27 33 33 29 28 28 24 20 19
11 9 7 6 5 5 6 9 13 17 19 22 23 24 27 30 29 33 34 36 35 30 24 25 26 27 28 28 26 28 29 26 28 28 29 29 27 25 26 22 23 16 15
10 7 5 4 2 2 6 11 14 18 21 25 28 28 28 27 30 35 33 31 31 29 29 29 27 28 27 25 23 22 24 24 24 25 15 17 19 20 12 15 24 10 12
Wind_Direction
217 202 204 209 224 220 258 234 242 253 270 274 282 282 289 287 290 291 287 287 289 298 296 294 290 286 285 285 285 283 278 272 271 274 276 276 274 268 257 252 246 239 237
210 207 215 219 234 238 236 259 275 287 296 294 289 292 288 287 290 289 287 289 295 304 305 305 302 291 288 287 284 282 280 279 275 270 271 274 273 270 263 256 250 244 237
215 222 225 226 238 262 279 288 301 301 317 318 314 311 305 310 304 295 299 298 293 290 296 303 302 296 289 279 275 274 275 275 275 274 271 267 268 269 267 261 254 245 240
222 223 228 245 267 318 331 309 317 308 301 300 302 301 299 298 295 296 300 295 290 290 296 301 286 292 300 292 281 273 271 269 271 270 270 269 265 265 265 263 258 251 239
210 196 162 209 136 226 309 311 297 306 308 305 301 300 299 298 296 300 298 298 297 296 293 296 303 295 297 304 301 291 282 276 271 268 269 269 267 263 263 263 260 256 244
205 180 183 230 157 226 282 271 304 301 311 306 305 309 304 297 295 293 299 309 300 306 302 293 297 303 302 307 311 312 310 297 289 276 271 271 267 266 264 261 259 256 250
198 175 180 227 190 185 227 286 301 310 321 309 324 314 311 323 299 303 301 301 309 301 302 303 304 304 304 303 307 306 306 304 298 293 286 288 274 275 262 260 256 252 249
198 208 205 180 171 211 279 316 324 334 329 327 326 324 323 313 296 303 313 302 310 305 307 303 303 303 305 302 298 297 294 287 289 289 287 285 284 281 297 270 256 247 245
202 204 190 194 246 146 239 317 330 338 325 324 320 322 330 314 316 315 310 306 300 305 304 303 299 303 295 298 302 299 297 298 291 288 290 290 290 284 282 293 263 261 254
194 187 194 227 183 168 271 328 304 323 316 315 314 306 297 298 310 312 304 302 303 302 303 302 301 302 301 300 300 308 295 298 299 300 297 298 298 295 285 277 293 255 247
187 188 214 225 230 188 285 307 306 307 310 300 301 304 301 300 300 300 303 306 301 301 300 302 300 303 305 304 294 292 296 298 300 303 303 303 298 301 298 278 287 309 242
180 195 194 200 234 266 284 298 299 309 298 294 297 296 299 302 301 299 301 303 302 303 301 299 298 300 302 302 295 305 293 296 314 311 314 318 315 301 296 290 279 291 289
178 198 192 223 235 265 291 299 305 299 294 291 289 296 297 293 292 293 296 299 301 303 300 299 299 299 300 298 301 297 298 303 309 307 307 307 316 314 298 293 286 276 290
174 208 217 246 270 287 296 303 302 296 290 291 290 293 291 292 293 293 295 300 303 302 301 299 304 301 300 301 294 293 303 308 303 303 306 304 308 318 313 302 288 308 268
190 220 243 263 278 292 299 302 300 289 289 292 292 294 295 293 292 294 292 293 296 300 299 300 303 303 302 299 303 296 297 294 301 301 306 308 308 311 311 299 309 286 303
198 233 245 273 285 297 302 296 290 289 289 293 299 296 297 298 298 299 300 296 292 297 296 295 300 302 302 296 294 290 292 299 299 297 298 300 300 301 313 300 297 306 292
216 234 261 282 291 296 295 288 293 299 302 303 304 303 299 303 303 301 297 295 293 296 293 292 295 296 296 295 294 293 290 289 293 293 291 293 290 298 305 307 293 285 286
225 257 274 279 288 291 287 290 301 296 304 306 302 302 304 305 303 302 300 297 289 295 292 292 290 296 297 295 290 294 292 285 284 291 292 297 293 300 301 305 292 282 277
242 262 269 280 286 279 285 291 300 306 306 303 306 305 305 305 304 303 295 288 300 296 293 288 292 296 297 301 299 289 286 287 282 287 295 294 304 299 296 305 294 284 273
248 260 268 274 276 267 275 288 301 301 308 306 303 301 300 301 292 289 291 294 296 294 294 295 296 299 302 306 306 308 304 293 287 282 288 297 308 307 301 301 299 279 272
241 249 254 261 244 268 258 280 297 306 311 311 309 305 302 300 299 297 299 298 300 299 299 297 295 296 298 302 305 304 301 302 288 288 288 294 297 292 313 305 302 277 267
233 233 228 220 214 239 270 295 306 314 314 315 315 315 315 313 311 301 305 302 299 297 297 297 296 296 299 305 307 302 301 299 300 295 293 295 303 307 313 306 305 287 260
227 214 211 208 200 256 284 303 311 318 319 320 321 322 319 314 316 316 309 304 305 302 296 298 296 298 304 308 305 305 300 296 295 295 294 301 306 309 310 308 305 289 268
191 187 203 240 257 267 293 304 324 328 327 327 326 321 316 318 319 317 312 308 309 311 308 304 302 303 303 305 302 304 300 290 289 293 297 303 310 310 311 308 304 288 260
205 218 228 244 265 289 315 330 329 329 331 325 320 318 318 322 323 324 318 315 313 316 317 311 309 312 315 311 304 301 302 303 300 301 303 306 311 315 319 314 316 289 250
207 207 202 196 215 316 329 334 337 335 330 330 330 327 326 325 324 324 318 316 313 319 319 319 318 317 315 311 307 299 298 296 296 301 310 302 314 322 322 322 336 310 236